This is the latest recevied weather packets stored in our database for station/object K2BIG. If no packets are shown the sender has not sent any weather packets the latest 1 day(s).
| Time | Temp. | Humidity | Pressure | Rain* | Wind** | Luminosity | Snow |
|---|---|---|---|---|---|---|---|
| 1778006116 | 28.89° C | 38% | 1007.2 hPa | 0 mm | 3.13 m/s, 225° | - | - |
| 1778005816 | 28.89° C | 39% | 1007.1 hPa | 0 mm | 3.13 m/s, 225° | - | - |
| 1778005516 | 28.33° C | 41% | 1007.3 hPa | 0 mm | 2.24 m/s, 203° | - | - |
| 1778005217 | 28.33° C | 38% | 1007.4 hPa | 0 mm | 4.47 m/s, 203° | - | - |
| 1778004916 | 28.89° C | 38% | 1007.5 hPa | 0 mm | 4.02 m/s, 225° | - | - |
| 1778004616 | 28.89° C | 40% | 1007.6 hPa | 0 mm | 3.58 m/s, 225° | - | - |
| 1778004316 | 28.33° C | 40% | 1007.5 hPa | 0 mm | 4.47 m/s, 203° | - | - |
| 1778004021 | 28.33° C | 40% | 1007.4 hPa | 0 mm | 4.02 m/s, 203° | - | - |
| 1778003716 | 28.33° C | 40% | 1007.6 hPa | 0 mm | 4.47 m/s, 225° | - | - |
| 1778003416 | 28.33° C | 41% | 1007.5 hPa | 0 mm | 3.58 m/s, 203° | - | - |
| 1778003116 | 28.33° C | 45% | 1007.6 hPa | 0 mm | 4.02 m/s, 203° | - | - |
| 1778002816 | 28.33° C | 44% | 1007.7 hPa | 0 mm | 3.58 m/s, 225° | - | - |
| 1778002516 | 28.33° C | 43% | 1007.9 hPa | 0 mm | 2.68 m/s, 180° | - | - |
| 1778002216 | 28.33° C | 45% | 1007.7 hPa | 0 mm | 3.13 m/s, 248° | - | - |
| 1778001916 | 27.78° C | 46% | 1007.8 hPa | 0 mm | 3.13 m/s, 225° | - | - |
| 1778001616 | 27.78° C | 44% | 1007.8 hPa | 0 mm | 3.58 m/s, 225° | - | - |
| 1778001316 | 28.33° C | 42% | 1007.8 hPa | 0 mm | 3.13 m/s, 203° | - | - |
| 1778001016 | 27.78° C | 48% | 1007.9 hPa | 0 mm | 2.24 m/s, 203° | - | - |
| 1778000716 | 27.78° C | 45% | 1007.9 hPa | 0 mm | 2.68 m/s, 203° | - | - |
| 1778000416 | 27.22° C | 47% | 1008 hPa | 0 mm | 3.13 m/s, 225° | - | - |
| 1778000116 | 27.22° C | 46% | 1008 hPa | 0 mm | 3.13 m/s, 225° | - | - |
| 1777999817 | 27.22° C | 46% | 1008.2 hPa | 0 mm | 3.13 m/s, 225° | - | - |
| 1777999516 | 27.22° C | 46% | 1008.3 hPa | 0 mm | 3.58 m/s, 203° | - | - |
| 1777999216 | 27.22° C | 46% | 1008.4 hPa | 0 mm | 2.68 m/s, 180° | - | - |
| 1777998916 | 27.22° C | 47% | 1008.5 hPa | 0 mm | 3.13 m/s, 225° | - | - |
* Rain latest hour (hover to see other rain measurements)
** Current wind speed in m/s (hover to see current wind gust speed)